This demonstration page uses our WeatherBlox Daily Observations layout. Learn more.

Left ArrowRight Arrow

39.51506, -84.39828

Hourly Observations for June 12, 2019

Temp ( °F °C ) Dew Point ( °F °C ) Humidity (%) Winds ( mph kmh ) Pressure ( in mb ) Visibility ( mi km ) Precip ( " mm )
12:15 am 00:15 Clear 56 13.3 53 11.8 91 91 N N/A 30.14 1021 10 16 N/A
12:35 am 00:35 Clear 56 13.4 53 11.9 91 91 E 3 6 30.13 1020 10 16 N/A
12:55 am 00:55 Clear 55 12.8 53 11.8 94 94 N N/A 30.13 1020 10 16 N/A
1:15 am 01:15 Clear 54 12.4 53 11.5 94 94 N N/A 30.13 1020 10 16 N/A
1:35 am 01:35 Clear 54 12.2 52 11.2 94 94 N N/A 30.13 1020 10 16 N/A
1:55 am 01:55 Clear 54 12.2 52 11.1 93 93 N N/A 30.12 1020 10 16 N/A
2:15 am 02:15 Clear 53 11.7 52 10.9 95 95 E 3 6 30.12 1020 10 16 N/A
2:35 am 02:35 Clear 53 11.7 51 10.8 94 94 NNE 3 6 30.11 1020 10 16 N/A
2:55 am 02:55 Clear 53 11.6 51 10.6 94 94 N 5 7 30.10 1019 10 16 N/A
3:15 am 03:15 Clear 53 11.5 51 10.4 93 93 NNE 5 7 30.11 1019 10 16 N/A
3:35 am 03:35 Clear 52 11.2 51 10.4 95 95 N 3 6 30.10 1019 10 16 N/A
3:55 am 03:55 Clear 52 11.1 51 10.3 95 95 N 5 7 30.10 1019 10 16 N/A
4:15 am 04:15 Clear 51 10.7 50 10 95 95 NNE 3 6 30.10 1019 10 16 N/A
4:35 am 04:35 Clear 51 10.7 50 10 95 95 N 3 6 30.10 1019 10 16 N/A
4:55 am 04:55 Clear 51 10.7 50 9.9 95 95 N N/A 30.10 1019 10 16 N/A
5:15 am 05:15 Clear 51 10.6 50 9.9 95 95 N N/A 30.10 1019 10 16 N/A
5:35 am 05:35 Clear 51 10.5 50 9.9 96 96 N 3 6 30.09 1019 10 16 N/A
5:55 am 05:55 Clear 51 10.8 50 10 95 95 N 3 6 30.09 1019 10 16 N/A
6:15 am 06:15 Sunny 51 10.5 49 9.7 95 95 N N/A 30.09 1019 10 16 N/A
6:35 am 06:35 Sunny 51 10.6 50 9.9 95 95 NE 3 6 30.08 1019 10 16 N/A
6:55 am 06:55 Sunny 52 11.1 51 10.3 95 95 N N/A 30.08 1018 10 16 N/A
7:15 am 07:15 Sunny 53 11.7 51 10.8 94 94 N N/A 30.07 1018 10 16 N/A
7:35 am 07:35 Sunny 54 12.1 52 11.1 94 94 N N/A 30.07 1018 10 16 N/A
7:55 am 07:55 Sunny 57 13.7 54 12.3 91 91 N N/A 30.06 1018 10 16 N/A
8:15 am 08:15 Sunny 59 15 55 12.6 86 86 ENE 3 6 30.06 1018 10 16 N/A
8:35 am 08:35 Sunny 61 16.2 55 12.8 80 80 ENE 3 6 30.04 1017 10 16 N/A
8:55 am 08:55 Sunny 64 17.7 55 12.8 73 73 NE 3 6 30.03 1017 10 16 N/A
9:15 am 09:15 Sunny 67 19.2 53 11.9 63 63 E 5 7 30.02 1016 10 16 N/A
9:35 am 09:35 Sunny 69 20.5 53 11.7 57 57 E 8 13 30.01 1016 10 16 N/A
9:55 am 09:55 Sunny 71 21.5 53 11.9 54 54 SE 6 9 29.99 1016 10 16 N/A
10:15 am 10:15 Sunny 71 21.9 53 11.4 51 51 ESE 9 15 29.98 1015 10 16 N/A
10:35 am 10:35 Sunny 72 22.1 52 11.3 50 50 ESE 14 22 29.97 1015 10 16 N/A
10:55 am 10:55 Sunny 73 22.9 53 11.9 50 50 E 10 17 29.96 1014 10 16 N/A
11:15 am 11:15 Sunny 74 23.3 54 12.4 50 50 ESE 10 17 29.95 1014 10 16 N/A
11:35 am 11:35 Sunny 75 23.7 54 12.2 49 49 SE 12 19 29.94 1014 10 16 N/A
11:55 am 11:55 Sunny 75 23.9 54 12.1 48 48 SSE 9 15 29.93 1013 10 16 N/A
12:15 pm 12:15 Sunny 75 24.1 54 12.3 48 48 SSE 12 19 29.92 1013 10 16 N/A
12:35 pm 12:35 Sunny 75 24.1 54 12.2 47 47 S 12 19 29.91 1013 10 16 N/A
12:55 pm 12:55 Sunny 75 24.1 55 13 50 50 SE 7 11 29.91 1013 10 16 N/A
1:15 pm 13:15 Sunny 76 24.7 56 13.6 50 50 S 10 17 29.89 1012 10 16 N/A
1:35 pm 13:35 Partly Cloudy 77 24.9 57 13.8 50 50 SSE 10 17 29.89 1012 10 16 N/A
1:55 pm 13:55 Sunny 77 25 56 13.6 49 49 SSE 15 24 29.88 1012 10 16 N/A
2:15 pm 14:15 Sunny 76 24.7 57 13.8 51 51 SSW 9 15 29.87 1012 10 16 N/A
2:35 pm 14:35 Sunny 77 25 57 13.9 50 50 SW 10 17 29.87 1012 10 16 N/A
2:55 pm 14:55 Sunny 77 25 58 14.3 52 52 SSW 13 20 29.86 1011 10 16 N/A
3:15 pm 15:15 Sunny 76 24.5 57 14.1 52 52 S 15 24 29.86 1011 10 16 N/A
3:35 pm 15:35 Partly Cloudy 76 24.5 57 14.1 52 52 S 12 19 29.85 1011 10 16 N/A
3:55 pm 15:55 Sunny 77 25.2 59 15.1 54 54 S 13 20 29.84 1011 10 16 N/A
4:15 pm 16:15 Partly Cloudy 77 24.8 58 14.7 54 54 SSW 10 17 29.83 1010 10 16 N/A
4:35 pm 16:35 Partly Cloudy 77 24.8 59 14.9 54 54 SSW 15 24 29.82 1010 10 16 N/A
4:55 pm 16:55 Mostly Cloudy 77 25 60 15.7 56 56 SSW 13 20 29.81 1010 10 16 N/A
5:15 pm 17:15 Mostly Cloudy 75 24.1 60 15.7 60 60 S 9 15 29.82 1010 10 16 N/A
5:35 pm 17:35 Mostly Cloudy 75 23.7 60 15.5 60 60 S 16 26 29.81 1009 10 16 N/A
5:55 pm 17:55 Mostly Cloudy 74 23.2 60 15.4 62 62 S 17 28 29.81 1009 10 16 N/A
6:15 pm 18:15 Mostly Cloudy 73 23 60 15.5 63 63 S 13 20 29.81 1009 10 16 N/A
6:35 pm 18:35 Cloudy with Light Rain 72 22 60 15.7 68 68 SW 13 20 29.80 1009 10 16 N/A
6:55 pm 18:55 Cloudy with Light Rain 71 21.4 61 16.1 72 72 SSW 13 20 29.80 1009 10 16 N/A
7:15 pm 19:15 Cloudy with Light Rain 69 20.7 62 16.4 77 77 SW 13 20 29.80 1009 10 16 N/A
7:35 pm 19:35 Cloudy with Light Rain 66 18.9 63 17 89 89 WSW 8 13 29.82 1010 5 8 0.01 0.25
7:55 pm 19:55 Cloudy with Light Rain 66 18.9 63 17.2 90 90 SSW 9 15 29.80 1009 7 11 0.03 0.76
8:15 pm 20:15 Cloudy 66 18.7 62 16.8 89 89 SSW 10 17 29.81 1009 10 16 N/A
8:35 pm 20:35 Mostly Cloudy 65 18.4 62 16.9 91 91 S 8 13 29.81 1009 10 16 N/A
8:55 pm 20:55 Cloudy 65 18.3 62 16.6 90 90 S 9 15 29.80 1009 10 16 N/A
9:15 pm 21:15 Cloudy 65 18.1 62 16.7 92 92 SE 6 9 29.79 1009 10 16 N/A
9:35 pm 21:35 Partly Cloudy 65 18.1 63 17.1 94 94 S 6 9 29.79 1009 10 16 N/A
9:55 pm 21:55 Cloudy 65 18.4 63 17.3 93 93 SSE 5 7 29.79 1009 10 16 N/A
10:15 pm 22:15 Cloudy 65 18.5 63 17.3 93 93 S 7 11 29.79 1009 10 16 N/A
10:35 pm 22:35 Cloudy 65 18.3 63 17.1 93 93 S 9 15 29.80 1009 10 16 N/A
10:55 pm 22:55 Cloudy 65 18.3 62 16.9 92 92 S 10 17 29.80 1009 10 16 N/A
11:15 pm 23:15 Mostly Cloudy 64 18 62 16.9 93 93 SSW 7 11 29.80 1009 10 16 N/A
11:35 pm 23:35 Mostly Cloudy 64 17.8 62 16.7 93 93 SSW 6 9 29.79 1009 10 16 N/A
11:55 pm 23:55 Cloudy 64 17.9 62 16.5 92 92 SSW 10 17 29.79 1009 10 16 N/A

Powered by AerisWeather